Location: Unspecified
(0.0000°N, 0.0000°E)
Time: 15:25:57
(UTC+00:00)

Envisat - Pass Details

Date: 20 February 2018
Orbit: 764 x 766 km, 98.2° (Epoch: 20 June)

Event Time Altitude Azimuth Distance (km) Brightness Sun altitude
Rises 20:57:07 0° 200° (SSW) 3,230 6.6 -40.0°
Reaches altitude 10° 21:00:18 10° 221° (SW) 2,301 5.9 -40.8°
Maximum altitude 21:03:18 16° 257° (WSW) 1,921 5.6 -41.5°
Enters shadow 21:04:20 15° 272° (W) 1,968 5.6 -41.7°
Exits shadow 21:08:26 - 310° (NW) 2,883 6.3 -42.7°
Sets 21:09:29 0° 316° (NW) 3,217 6.5 -43.0°
